Location: Newark
(48.9886°N, 1.2358°E)
Time: 02:10:39
(UTC+00:00)

Transit 4A - Pass Details

Date: 21 November 2019
Orbit: 870 x 975 km, 66.8° (Epoch: 14 December)

Event Time Altitude Azimuth Distance (km) Brightness Sun altitude
Exits shadow 05:37:04 12° 327° (NNW) 2,439 9.7 -15.4°
Maximum altitude 05:42:39 76° 52° (NE) 912 7.9 -14.6°
Drops below altitude 10° 05:48:28 10° 139° (SE) 2,516 11.0 -13.6°
Sets 05:50:56 0° 141° (SE) 3,447 11.8 -13.2°
